Content
SEND FEEDBACK

Daily
Averages
Monthly
Summary
United States of America

MAURICEVILLE, TEXAS


Home > North America > United States > Texas
Elevation: 20 feet     Latitude: 30 14N     Longitude: 093 44W

WEATHER
 
SELECT A DAY
Number of Records: 109,616;   Date Range: 8/25/05 - 8/29/14
 
SHARE

PRINT THIS DATA

[ ← Previous Day ]
WEATHER ALMANAC - MARCH 5, 2013
[ Next Day → ]
[ °C ]   °F
Weather ElementAverageHighLow
Temperature62.6 °F69.8 °F (12:55 pm)50 °F (11:55 pm)
Dewpoint46.1 °F62.6 °F (5:15 am)30.2 °F (11:15 pm)
Humidity59.9 %100 % (3:55 am)28 % (4:35 pm)
Barometer30.10 in30.31 in (11:35 pm)29.87 in (2:35 am)
Wind Speed9.2 mph17.3 mph (9:55 am)
Wind Gust31.1 mph (10:15 am)
Weather ElementAverage
Visibility9.1 mi
Wind DirectionWNW (284.7 °)

Weather ElementTotal
Precipitation---
Heating Degree Days5.1 (Base 65)
Growing Degree Days9.9 (Base 50)
Averaged from 70 records on March 5, 2013
WEATHER CONDITIONS BREAKOUT
WIND DIRECTION BREAKOUT
WEATHER BY HOUR - MARCH 5, 2013
[ °C ]   °F
Local TimeTemperatureDewpointHumidityBarometerVisibilityWind DirectionWind SpeedGust SpeedPrecipitationEventsConditions
12:35 AM62.6 °F60.8 °F94 %29.90 in7.0 miSSE (150°)4.6 mphOvercast
12:55 AM62.6 °F60.8 °F94 %29.89 in7.0 miSouth (170°)5.8 mphOvercast
1:15 AM62.6 °F60.8 °F94 %29.89 in7.0 miSouth (170°)6.9 mphMostly Cloudy
1:35 AM62.6 °F60.8 °F94 %29.89 in7.0 miSouth (170°)6.9 mphMostly Cloudy
1:55 AM62.6 °F60.8 °F94 %29.89 in7.0 miSouth (170°)5.8 mphMostly Cloudy
2:15 AM62.6 °F60.8 °F94 %29.89 in7.0 miSouth (180°)5.8 mphMostly Cloudy
2:35 AM62.6 °F60.8 °F94 %29.87 in7.0 miSouth (170°)9.2 mphOvercast
2:55 AM62.6 °F60.8 °F94 %29.87 in7.0 miSouth (170°)8.1 mphOvercast
3:15 AM62.6 °F60.8 °F94 %29.87 in7.0 miSouth (170°)6.9 mphOvercast
3:35 AM62.6 °F60.8 °F94 %29.87 in7.0 miSouth (170°)8.1 mphOvercast
3:55 AM60.8 °F60.8 °F100 %29.87 in7.0 miSouth (180°)9.2 mphMostly Cloudy
4:15 AM62.6 °F60.8 °F94 %29.88 in7.0 miSouth (180°)6.9 mphOvercast
4:35 AM62.6 °F60.8 °F94 %29.89 in7.0 miSouth (190°)8.1 mphOvercast
4:55 AM62.6 °F60.8 °F94 %29.91 in7.0 miSouth (180°)4.6 mphOvercast
5:15 AM64.4 °F62.6 °F94 %29.98 in7.0 miWest (280°)8.1 mphOvercast
5:35 AM64.4 °F62.6 °F94 %29.98 in7.0 miWest (280°)4.6 mphOvercast
5:55 AM64.4 °F62.6 °F94 %29.99 in7.0 miWest (270°)4.6 mphOvercast
6:15 AM64.4 °F62.6 °F94 %29.99 in7.0 miSW (230°)3.5 mphOvercast
6:35 AM64.4 °F60.8 °F88 %29.99 in7.0 miSSW (210°)3.5 mphOvercast
7:15 AM62.6 °F60.8 °F94 %30.00 in7.0 miSSW (200°)4.6 mphScattered Clouds
7:35 AM64.4 °F62.6 °F94 %30.01 in7.0 miSSW (200°)4.6 mphClear
7:55 AM66.2 °F62.6 °F88 %30.02 in10.0 miSW (230°)4.6 mphClear
8:15 AM66.2 °F62.6 °F88 %30.03 in10.0 miWSW (250°)4.6 mphScattered Clouds
8:35 AM68.0 °F62.6 °F83 %30.04 in10.0 miWSW (240°)4.6 mphMostly Cloudy
8:55 AM68.0 °F60.8 °F78 %30.06 in10.0 miWNW (290°)13.8 mph20.7 mphOvercast
9:15 AM66.2 °F60.8 °F83 %30.07 in10.0 miNW (310°)11.5 mph21.9 mphOvercast
9:35 AM62.6 °F51.8 °F68 %30.11 in10.0 miNW (310°)13.8 mph28.8 mphOvercast
9:55 AM62.6 °F50.0 °F63 %30.11 in10.0 miNW (320°)17.3 mph23.0 mphOvercast
10:15 AM62.6 °F50.0 °F63 %30.12 in10.0 miNNW (330°)17.3 mph31.1 mphMostly Cloudy
10:35 AM62.6 °F46.4 °F55 %30.13 in10.0 miNNW (340°)16.1 mph23.0 mphMostly Cloudy
10:55 AM62.6 °F46.4 °F55 %30.13 in10.0 miNorth (350°)11.5 mph17.3 mphMostly Cloudy
11:15 AM64.4 °F46.4 °F52 %30.13 in10.0 miNNW (340°)11.5 mph16.1 mphClear
11:35 AM64.4 °F46.4 °F52 %30.14 in10.0 miNNW (330°)11.5 mphClear
11:55 AM66.2 °F46.4 °F49 %30.14 in10.0 miNNW (330°)12.7 mph19.6 mphClear
12:15 PM68.0 °F44.6 °F43 %30.13 in10.0 miNNW (330°)11.5 mph16.1 mphClear
12:35 PM68.0 °F42.8 °F40 %30.13 in10.0 miNorth (350°)13.8 mph18.4 mphClear
12:55 PM69.8 °F42.8 °F38 %30.13 in10.0 miNorth (350°)15.0 mph20.7 mphClear
1:15 PM69.8 °F42.8 °F38 %30.13 in10.0 miNNW (340°)11.5 mph21.9 mphClear
1:35 PM69.8 °F41.0 °F35 %30.12 in10.0 miNNW (340°)10.4 mphClear
1:55 PM69.8 °F41.0 °F35 %30.12 in10.0 miNNW (330°)15.0 mph20.7 mphClear
2:15 PM68.0 °F37.4 °F33 %30.12 in10.0 miNW (310°)11.5 mph21.9 mphClear
2:35 PM68.0 °F35.6 °F30 %30.13 in10.0 miNW (310°)15.0 mph21.9 mphClear
2:55 PM69.8 °F37.4 °F31 %30.13 in10.0 miNorth (350°)16.1 mph21.9 mphClear
3:15 PM68.0 °F35.6 °F30 %30.13 in10.0 miNNW (330°)11.5 mph19.6 mphClear
3:35 PM68.0 °F35.6 °F30 %30.13 in10.0 miNNW (330°)12.7 mph19.6 mphClear
3:55 PM68.0 °F35.6 °F30 %30.14 in10.0 miNW (320°)11.5 mph23.0 mphClear
4:15 PM68.0 °F35.6 °F30 %30.15 in10.0 miNNW (330°)15.0 mph19.6 mphClear
4:35 PM68.0 °F33.8 °F28 %30.15 in10.0 miNNW (330°)10.4 mph17.3 mphClear
4:55 PM66.2 °F32.0 °F28 %30.16 in10.0 miWNW (300°)11.5 mph17.3 mphClear
5:15 PM66.2 °F32.0 °F28 %30.16 in10.0 miNNW (340°)12.7 mphClear
5:35 PM64.4 °F32.0 °F30 %30.17 in10.0 miNW (320°)10.4 mph16.1 mphClear
5:55 PM62.6 °F32.0 °F32 %30.18 in10.0 miNNW (330°)10.4 mph17.3 mphClear
6:15 PM62.6 °F32.0 °F32 %30.18 in10.0 miNNW (330°)8.1 mphClear
6:35 PM60.8 °F32.0 °F34 %30.19 in10.0 miNNW (330°)4.6 mphClear
6:55 PM59.0 °F32.0 °F36 %30.20 in10.0 miNW (320°)4.6 mphClear
7:15 PM59.0 °F33.8 °F39 %30.21 in10.0 miNW (310°)4.6 mphClear
7:35 PM57.2 °F32.0 °F38 %30.22 in10.0 miNW (320°)5.8 mphClear
7:55 PM57.2 °F32.0 °F38 %30.23 in10.0 miNW (320°)5.8 mphClear
8:15 PM57.2 °F32.0 °F38 %30.24 in10.0 miNW (320°)5.8 mphClear
8:35 PM55.4 °F32.0 °F41 %30.25 in10.0 miNNW (340°)6.9 mphClear
8:55 PM55.4 °F33.8 °F44 %30.26 in10.0 miNNW (330°)6.9 mphClear
9:15 PM55.4 °F33.8 °F44 %30.26 in10.0 miNNW (330°)10.4 mphClear
9:35 PM53.6 °F33.8 °F47 %30.27 in10.0 miNNW (330°)9.2 mphClear
9:55 PM53.6 °F32.0 °F44 %30.28 in10.0 miNNW (330°)9.2 mphClear
10:15 PM53.6 °F32.0 °F44 %30.29 in10.0 miNNW (330°)9.2 mphClear
10:35 PM51.8 °F32.0 °F47 %30.29 in10.0 miNNW (330°)11.5 mph16.1 mphClear
10:55 PM51.8 °F32.0 °F47 %30.30 in10.0 miNNW (340°)10.4 mph17.3 mphClear
11:15 PM51.8 °F30.2 °F44 %30.30 in10.0 miNNW (340°)10.4 mph18.4 mphClear
11:35 PM51.8 °F30.2 °F44 %30.31 in10.0 miNNW (340°)8.1 mph17.3 mphClear
11:55 PM50.0 °F32.0 °F50 %30.31 in10.0 miNNW (340°)8.1 mphClear
Hourly data recorded from KORG, located miles away from Mauriceville, Texas







STORIES FROM OUR PARTNERS